Monroe, LA

9:58 PM CST on February 10, 2016 (GMT -0600)
Monroe Regional

Weather History for KMLU - April, 2014

Change the Weather History Date:

Friday, April 25, 2014

  Actual Average Record
Temperature  
Mean Temperature 66 °F 68 °F  
Max Temperature 80 °F 80 °F 90 °F (1989)
Min Temperature 52 °F 56 °F 43 °F (1969)
Degree Days  
Heating Degree Days 0 1  
Month to date heating degree days 106 76  
Since 1 July heating degree days 2806 2220  
Cooling Degree Days 1 5  
Month to date cooling degree days 54 77  
Year to date cooling degree days 63 120  
Growing Degree Days 16 (Base 50)    
Moisture  
Dew Point 50 °F    
Average Humidity 61    
Maximum Humidity 93    
Minimum Humidity 28    
Precipitation  
Precipitation 0.00 in 0.16 in 1.47 in (1980)
Month to date precipitation 7.88 3.76  
Year to date precipitation 16.65 18.12  
Snow  
Snow 0.00 in - - ()
Month to date snowfall 0.0  
Since 1 July snowfall 0.5  
Snow Depth 0.00 in    
Sea Level Pressure  
Sea Level Pressure 29.98 in    
Wind  
Wind Speed 4 mph (NNE)    
Max Wind Speed 14 mph    
Max Gust Speed 17 mph    
Visibility 10 miles    
Events      
T = Trace of Precipitation, MM = Missing Value Source: NWS Daily Summary

Daily Weather History Graph

Daily Weather History Graph

Search for Another Location

Airport or City:

Trip Planner

Search our weather history database for the weather conditions in past years. The results will help you decide how hot, cold, wet, or windy it might be!

Date:

Astronomy

Apr. 25, 2014 Rise Set
Actual Time 6:27 AM CDT 7:45 PM CDT
Civil Twilight 6:01 AM CDT 8:11 PM CDT
Nautical Twilight 5:31 AM CDT 8:41 PM CDT
Astronomical Twilight 4:59 AM CDT 9:13 PM CDT
Moon 4:02 AM CDT (4/25) 4:19 PM CDT (4/25)
Length of Visible Light 14h 09m
Length of Day
13h 17m
Waning Crescent, 15% of the Moon is Illuminated
Apr 25
Waning Crescent
Apr 29
New
May 6
First Quarter
May 14
Full
May 21
Last Quarter

Hourly Weather History & Observations

Time (CDT) Temp. Dew Point Humidity Pressure Visibility Wind Dir Wind Speed Gust Speed Precip Events Conditions
12:53 AM 68.0 °F 64.9 °F 90% 29.90 in 9.0 mi WNW 5.8 mph - N/A   Partly Cloudy
1:53 AM 64.9 °F 63.0 °F 93% 29.90 in 9.0 mi WNW 6.9 mph - N/A   Clear
2:53 AM 64.9 °F 57.9 °F 78% 29.91 in 10.0 mi NNW 8.1 mph - N/A   Clear
3:53 AM 62.1 °F 54.0 °F 75% 29.93 in 10.0 mi NNW 6.9 mph - N/A   Clear
4:53 AM 57.9 °F 51.1 °F 78% 29.95 in 10.0 mi Calm Calm - N/A   Clear
5:53 AM 57.9 °F 50.0 °F 75% 29.97 in 10.0 mi NNW 3.5 mph - N/A   Clear
6:53 AM 55.9 °F 50.0 °F 80% 29.99 in 10.0 mi Calm Calm - N/A   Clear
7:53 AM 62.1 °F 50.0 °F 65% 30.02 in 10.0 mi NNW 5.8 mph - N/A   Clear
8:53 AM 64.9 °F 46.9 °F 52% 30.03 in 10.0 mi North 10.4 mph - N/A   Clear
9:53 AM 68.0 °F 48.9 °F 50% 30.04 in 10.0 mi Variable 4.6 mph - N/A   Clear
10:53 AM 70.0 °F 48.0 °F 46% 30.05 in 10.0 mi Calm Calm - N/A   Clear
11:53 AM 73.0 °F 46.9 °F 39% 30.05 in 10.0 mi East 4.6 mph - N/A   Clear
12:53 PM 75.0 °F 48.0 °F 38% 30.03 in 10.0 mi Calm Calm - N/A   Clear
1:53 PM 78.1 °F 50.0 °F 37% 30.01 in 10.0 mi NE 5.8 mph - N/A   Clear
2:53 PM 79.0 °F 46.9 °F 32% 30.00 in 10.0 mi NE 6.9 mph - N/A   Clear
3:53 PM 77.0 °F 44.1 °F 31% 29.98 in 10.0 mi ESE 6.9 mph - N/A   Clear
4:53 PM 79.0 °F 43.0 °F 28% 29.97 in 10.0 mi NE 5.8 mph - N/A   Clear
5:53 PM 79.0 °F 42.1 °F 27% 29.96 in 10.0 mi Calm Calm - N/A   Clear
6:53 PM 75.9 °F 48.0 °F 37% 29.96 in 10.0 mi Calm Calm - N/A   Clear
7:53 PM 64.9 °F 52.0 °F 63% 29.96 in 10.0 mi ENE 3.5 mph - N/A   Clear
8:53 PM 60.1 °F 50.0 °F 69% 29.97 in 10.0 mi Calm Calm - N/A   Clear
9:53 PM 57.0 °F 48.9 °F 74% 29.98 in 10.0 mi ENE 3.5 mph - N/A   Clear
10:53 PM 54.0 °F 48.0 °F 80% 29.99 in 10.0 mi Calm Calm - N/A   Clear
11:53 PM 53.6 °F 48.2 °F 82% 29.97 in 10.0 mi Calm Calm - N/A   Clear